Home > Time Zones > World Clock > Weather > Iran > Rasht > Past weeks

Flag for Iran Weather past 2 weeks in Rasht, Iran

Now
75 °F

Mostly cloudy.


Feels Like: 77 °F
Forecast: 66 / 83 °F
Wind: 7 mph from Southwest

Location: Rasht Airport

Current Time: Aug 29, 2015 at 12:40:13 PM

Latest Report: Aug 29, 2015 at 12:00 PM


Visibility: N/A

Pressure: 30.12 "Hg

Humidity: 74%

Dew point: 66 °F

Location of RashtLocation

Historic Weather in Rasht — Graph

°F

Rasht temperature yesterday

Maximum temperature yesterday: 75 °F (at 3:30 PM)
Minimum temperature yesterday: 66 °F (at 6:30 AM)
Average temperature yesterday: 71 °F

Past Weeks' High & Low Weather Summary

 TemperatureHumidityPressure
High95 °F (Aug 14, 5:30 PM)100% (Aug 15, 2:30 AM)30.12 "Hg (Aug 15, 2:30 AM)
Low66 °F (Aug 27, 1:30 AM)39% (Aug 17, 3:30 PM)29.53 "Hg (Aug 17, 2:30 AM)
Average79 °F79%29.86 "Hg
* Reported Aug 14 11:30 AM — Aug 29 11:30 AM, Rasht, Weather by CustomWeather, © 2015

Note: Actual official high and low records may vary slightly from our data, if they occured in-between our weather recording intervals... More about our weather records

Advertising

Rasht weather history for previous 24 hours

 ConditionsComfort  
Time TempWeatherWind HumidityBarometerVisibility
11:30 AM
Sat, Aug 29
75 °FMostly cloudy.7 mph74%30.12 "HgN/A
10:30 AM73 °FMostly cloudy.5 mph78%30.12 "HgN/A
10:00 AM72 °FMostly cloudy.5 mph88%30.09 "HgN/A
9:30 AM72 °FMostly cloudy.5 mph88%30.09 "HgN/A
9:00 AM72 °FMostly cloudy.5 mph83%30.09 "HgN/A
8:30 AM70 °FMostly cloudy.No wind88%30.09 "HgN/A
8:00 AM70 °FMostly cloudy.No wind88%30.09 "HgN/A
7:30 AM70 °FMostly cloudy.No wind88%30.09 "HgN/A
7:00 AM70 °FMostly cloudy.No wind88%30.09 "HgN/A
6:30 AM70 °FMostly cloudy.No wind88%30.07 "HgN/A
3:30 AM70 °FMostly cloudy.No wind88%30.07 "HgN/A
12:30 AM70 °FMostly cloudy.No wind88%30.09 "HgN/A
8:30 PM
Fri, Aug 28
73 °FMostly cloudy.No wind78%30.09 "HgN/A
8:00 PM73 °FMostly cloudy.7 mph78%30.07 "HgN/A
7:30 PM73 °FMostly cloudy.No wind78%30.07 "HgN/A
7:00 PM73 °FMostly cloudy.No wind78%30.07 "HgN/A
6:30 PM73 °FMostly cloudy.No wind78%30.07 "HgN/A
6:00 PM73 °FMore clouds than sun.No wind78%30.07 "HgN/A
5:30 PM73 °FMore clouds than sun.No wind78%30.07 "HgN/A
5:00 PM73 °FMore clouds than sun.5 mph78%30.07 "HgN/A
4:30 PM73 °FMore clouds than sun.No wind78%30.07 "HgN/A
4:00 PM75 °FMore clouds than sun.5 mph78%30.09 "HgN/A
3:30 PM75 °FMore clouds than sun.5 mph78%30.09 "HgN/A
3:00 PM73 °FMore clouds than sun.5 mph83%30.09 "HgN/A
2:30 PM72 °FMore clouds than sun.5 mph88%30.12 "Hg4 mi
2:00 PM72 °FMore clouds than sun.5 mph88%30.12 "Hg4 mi
1:30 PM72 °FMore clouds than sun.5 mph88%30.12 "Hg4 mi
1:00 PM68 °FMore clouds than sun.5 mph94%30.12 "Hg4 mi
12:30 PM68 °FMore clouds than sun.5 mph94%30.12 "Hg4 mi
12:00 PM68 °FMore clouds than sun.7 mph94%30.12 "Hg4 mi
Weather by CustomWeather, © 2015

See weather overviewHow to use our weather pages